Home   Weather   Loma Linda   Past weeks

Flag for USA Past Weather in Loma Linda, California, USA — Yesterday and Last 2 Weeks

Now
44 °F

Overcast.


Feels Like: 42 °F
Forecast: 37 / 49 °F
Wind: 5 mph from Northeast

Location: Norton Air Force Base / San Bern

Current Time: Jan 24, 2017 at 1:26:57 am

Latest Report: Jan 24, 2017 at 12:59 am


Visibility: 10 mi

Pressure: 29.91 "Hg

Humidity: 80%

Dew Point: 38 °F

Location of Loma LindaLocation

Past Weather in Loma Linda — Graph

°F

Loma Linda Temperature Yesterday

Maximum temperature yesterday: 54 °F (at 12:18 am)
Minimum temperature yesterday: 45 °F (at 1:45 pm)
Average temperature yesterday: 48 °F

High & Low Weather Summary for the Past Weeks

 TemperatureHumidityPressure
High67 °F (Jan 16, 2:39 pm)91% (Jan 11, 3:18 am)30.22 "Hg (Jan 11, 3:18 am)
Low37 °F (Jan 18, 7:00 am)13% (Jan 16, 5:50 pm)29.43 "Hg (Jan 20, 3:15 pm)
Average52 °F73%30.01 "Hg
* Reported Jan 8 11:19 pm — Jan 23 11:59 pm, Loma Linda, Weather by CustomWeather, © 2017

Note: Actual official high and low records may vary slightly from our data, if they occured in-between our weather recording intervals... More about our weather records

Advertising

Loma Linda Weather History for the Previous 24 Hours

Scroll right to see more
 ConditionsComfort  
Time TempWeatherWind HumidityBarometerVisibility
11:59 pm
Mon, Jan 23
45 °FMostly cloudy.5 mph77%29.90 "Hg10 mi
11:18 pm45 °FMostly cloudy.3 mph79%29.90 "Hg10 mi
10:59 pm45 °FMostly cloudy.5 mph79%29.90 "Hg10 mi
10:38 pm45 °FMostly cloudy.5 mph79%29.90 "Hg10 mi
10:18 pm45 °FMostly cloudy.7 mph79%29.89 "Hg10 mi
9:59 pm45 °FOvercast.5 mph80%29.89 "Hg10 mi
8:50 pm45 °FPartly cloudy.3 mph81%29.88 "Hg7 mi
7:50 pm45 °FPartly cloudy.5 mph81%29.87 "Hg7 mi
6:50 pm46 °FMostly cloudy.No wind76%29.86 "Hg5 mi
5:50 pm46 °FPartly cloudy.5 mph76%29.85 "Hg5 mi
4:50 pm48 °FCool.5 mph71%29.83 "Hg10 mi
3:50 pm48 °FOvercast.9 mph71%29.83 "Hg10 mi
2:50 pm46 °FMore clouds than sun.6 mph76%29.85 "Hg7 mi
1:45 pm45 °FRain. Cloudy.3 mph81%29.83 "Hg5 mi
12:50 pm46 °FOvercast.No wind82%29.84 "Hg7 mi
11:50 am48 °FMostly cloudy.14 mph82%29.85 "Hg7 mi
10:50 am46 °FLight rain. Mostly cloudy.3 mph82%29.91 "Hg3 mi
9:47 am46 °FHeavy rain. Cloudy.7 mph82%29.94 "Hg2 mi
8:46 am48 °FRain. Cloudy.3 mph76%29.91 "Hg5 mi
7:00 am50 °FRain. Cloudy.No wind88%29.90 "Hg3 mi
5:39 am47 °FLight rain. Overcast.6 mph79%29.89 "Hg10 mi
5:18 am48 °FRain. Overcast.13 mph76%29.89 "Hg7 mi
4:58 am49 °FRain. Mostly cloudy.7 mph77%29.88 "Hg10 mi
4:39 am49 °FLight rain. Mostly cloudy.9 mph77%29.88 "Hg7 mi
4:18 am49 °FLight rain. Overcast.10 mph79%29.89 "Hg10 mi
3:58 am49 °FLight rain. Overcast.9 mph80%29.89 "Hg7 mi
3:39 am51 °FLight rain. Overcast.8 mph82%29.90 "Hg10 mi
3:18 am51 °FOvercast.7 mph83%29.89 "Hg10 mi
2:58 am51 °FMostly cloudy.7 mph83%29.90 "Hg10 mi
2:18 am52 °FHeavy rain. Overcast.9 mph84%29.90 "Hg7 mi
1:58 am52 °FLight rain. Overcast.13 mph85%29.90 "Hg7 mi
1:39 am53 °FOvercast.9 mph85%29.90 "Hg10 mi
1:18 am52 °FMostly cloudy.9 mph86%29.90 "Hg10 mi
Weather by CustomWeather, © 2017

See weather overviewHow to use our weather pages